Location: Helsinki
(60.1699°N, 24.9384°E)
Time: 11:27:11
(UTC+02:00)

Transit 2A Rocket - Pass Details

Date: 26 September 2023
Orbit: 593 x 903 km, 66.7° (Epoch: 06 December)

Event Time Altitude Azimuth Distance (km) Brightness Sun altitude
Rises 21:38:32 0° 302° (WNW) 3,085 9.9 -18.5°
Reaches altitude 10° 21:41:01 10° 307° (NW) 2,118 8.6 -18.8°
Maximum altitude 21:45:41 54° 25° (NNE) 782 5.0 -19.3°
Enters shadow 21:47:12 36° 81° (E) 1,000 5.2 -19.4°
Drops below altitude 10° 21:50:01 10° 103° (ESE) 1,974 - -19.7°
Sets 21:52:16 0° 108° (ESE) 2,855 - -20.0°
